EAG5501 SCEL-SBGR

Flight info

Callsign EAG5501
Flight time 2h 58m
Altitude 39000
Route NEBEG5D NEBEG UL531 ESITO UT652 SIKOB UM400 SAVLU UZ121 BUXUK
Aircraft A332/H-SDE2E3FGHIJ4J5M1RWXY/LB1D1

Departure

Time 2026-05-07 15:42
Airport Comodoro Arturo Merino Benítez International Airport (SCEL)

Arrival

Time 2026-05-07 18:41
Airport São Paulo/Guarulhos–Governor André Franco Montoro International Airport (SBGR)
Time Latitude Longitude Altitude Speed Heading
2026-05-07 15:23 -33.40552 -70.79779 1568 ft 0 kts 268°
2026-05-07 15:39 -33.40550 -70.79783 1568 ft 1 kts 283°
2026-05-07 15:39 -33.40542 -70.79786 1568 ft 1 kts 340°
2026-05-07 15:40 -33.40524 -70.79781 1568 ft 4 kts
2026-05-07 15:40 -33.40488 -70.79820 1568 ft 11 kts 287°
2026-05-07 15:40 -33.40498 -70.79929 1569 ft 14 kts 244°
2026-05-07 15:40 -33.40567 -70.79999 1570 ft 13 kts 212°
2026-05-07 15:41 -33.40595 -70.80075 1573 ft 9 kts 267°
2026-05-07 15:41 -33.40594 -70.80147 1577 ft 11 kts 270°
2026-05-07 15:41 -33.40556 -70.80194 1578 ft 7 kts 358°
2026-05-07 15:41 -33.40466 -70.80197 1577 ft 29 kts 358°
2026-05-07 15:42 -33.40004 -70.80222 1577 ft 102 kts 357°
2026-05-07 15:42 -33.39077 -70.80273 1579 ft 162 kts 357°
2026-05-07 15:42 -33.37864 -70.80339 2042 ft 180 kts 358°
2026-05-07 15:42 -33.36605 -70.80411 2719 ft 182 kts 357°
2026-05-07 15:43 -33.35282 -70.80555 3033 ft 203 kts 356°
2026-05-07 15:43 -33.33788 -70.80533 3302 ft 229 kts 13°
2026-05-07 15:43 -33.32234 -70.79819 3633 ft 253 kts 31°
2026-05-07 15:43 -33.30982 -70.78300 4420 ft 258 kts 61°
2026-05-07 15:44 -33.30503 -70.76238 5317 ft 262 kts 89°
2026-05-07 15:44 -33.30829 -70.74115 6149 ft 267 kts 107°
2026-05-07 15:44 -33.31586 -70.72067 6977 ft 273 kts 122°
2026-05-07 15:44 -33.32905 -70.70446 7803 ft 275 kts 150°
2026-05-07 15:45 -33.34690 -70.69688 8744 ft 272 kts 170°
2026-05-07 15:45 -33.36566 -70.69353 9642 ft 273 kts 171°
2026-05-07 15:45 -33.38429 -70.68884 10456 ft 275 kts 166°
2026-05-07 15:45 -33.40349 -70.68403 10890 ft 290 kts 172°
2026-05-07 15:46 -33.44582 -70.67635 11416 ft 327 kts 164°
2026-05-07 15:46 -33.46741 -70.66571 11708 ft 344 kts 155°
2026-05-07 15:46 -33.48903 -70.65239 12226 ft 352 kts 154°
2026-05-07 15:47 -33.51091 -70.63892 12912 ft 355 kts 155°
2026-05-07 15:47 -33.53303 -70.62561 13662 ft 357 kts 156°
2026-05-07 15:47 -33.55508 -70.61256 14378 ft 358 kts 157°
2026-05-07 15:47 -33.57742 -70.59946 15147 ft 356 kts 158°
2026-05-07 15:48 -33.59965 -70.58649 15959 ft 354 kts 159°
2026-05-07 15:48 -33.62174 -70.57363 16752 ft 352 kts 159°
2026-05-07 15:48 -33.64408 -70.56065 17546 ft 351 kts 160°
2026-05-07 15:48 -33.66575 -70.54806 18294 ft 351 kts 160°
2026-05-07 15:49 -33.68775 -70.53529 18980 ft 351 kts 160°
2026-05-07 15:49 -33.70989 -70.52245 19463 ft 356 kts 160°
2026-05-07 15:49 -33.73235 -70.50942 19941 ft 360 kts 161°
2026-05-07 15:49 -33.75499 -70.49625 20461 ft 363 kts 160°
2026-05-07 15:50 -33.77713 -70.48095 20984 ft 374 kts 153°
2026-05-07 15:50 -33.79689 -70.45975 21515 ft 390 kts 140°
2026-05-07 15:50 -33.80768 -70.44203 21757 ft 405 kts 131°
2026-05-07 15:50 -33.81904 -70.41012 22124 ft 429 kts 115°
2026-05-07 15:51 -33.82267 -70.37339 22529 ft 458 kts 98°
2026-05-07 15:51 -33.81818 -70.33451 22951 ft 476 kts 90°
2026-05-07 15:51 -33.81422 -70.29518 23328 ft 473 kts 96°
2026-05-07 15:51 -33.81221 -70.25568 23709 ft 474 kts 98°
2026-05-07 15:52 -33.81074 -70.21591 24066 ft 477 kts 98°
2026-05-07 15:52 -33.80936 -70.17593 24516 ft 480 kts 99°
2026-05-07 15:52 -33.80802 -70.13577 25025 ft 482 kts 99°
2026-05-07 15:52 -33.80665 -70.09547 25539 ft 482 kts 99°
2026-05-07 15:53 -33.80530 -70.05520 25984 ft 483 kts 99°
2026-05-07 15:53 -33.80397 -70.01475 26374 ft 485 kts 99°
2026-05-07 15:53 -33.80261 -69.97411 26683 ft 487 kts 99°
2026-05-07 15:53 -33.80123 -69.93330 27116 ft 489 kts 99°
2026-05-07 15:54 -33.80136 -69.89283 27596 ft 480 kts 105°
2026-05-07 15:54 -33.80394 -69.85283 27953 ft 479 kts 108°
2026-05-07 15:54 -33.80759 -69.81308 28344 ft 477 kts 109°
2026-05-07 15:54 -33.81171 -69.77352 28597 ft 477 kts 110°
2026-05-07 15:55 -33.81601 -69.73391 28971 ft 478 kts 110°
2026-05-07 15:55 -33.82031 -69.69416 29308 ft 480 kts 110°
2026-05-07 15:55 -33.82449 -69.65431 29504 ft 483 kts 110°
2026-05-07 15:55 -33.82858 -69.61410 29861 ft 485 kts 110°
2026-05-07 15:56 -33.83248 -69.57439 30343 ft 483 kts 109°
2026-05-07 15:56 -33.83635 -69.53434 30809 ft 481 kts 110°
2026-05-07 15:56 -33.84027 -69.49446 31258 ft 478 kts 111°
2026-05-07 15:56 -33.84412 -69.45487 31681 ft 477 kts 110°
2026-05-07 15:57 -33.84791 -69.41522 32068 ft 476 kts 111°
2026-05-07 15:57 -33.85169 -69.37558 32404 ft 476 kts 111°
2026-05-07 15:57 -33.85547 -69.33611 32751 ft 475 kts 111°
2026-05-07 15:57 -33.85926 -69.29663 32995 ft 474 kts 111°
2026-05-07 15:58 -33.86302 -69.25722 33203 ft 474 kts 111°
2026-05-07 15:58 -33.86675 -69.21785 33459 ft 474 kts 111°
2026-05-07 15:58 -33.87046 -69.17849 33807 ft 472 kts 112°
2026-05-07 15:58 -33.87411 -69.13939 34186 ft 469 kts 112°
2026-05-07 15:59 -33.87775 -69.10046 34389 ft 469 kts 112°
2026-05-07 15:59 -33.88139 -69.06188 34529 ft 470 kts 112°
2026-05-07 15:59 -33.88514 -69.02223 34696 ft 471 kts 111°
2026-05-07 15:59 -33.88882 -68.98306 34875 ft 472 kts 111°
2026-05-07 16:00 -33.89246 -68.94381 35035 ft 474 kts 110°
2026-05-07 16:00 -33.89386 -68.90358 35261 ft 490 kts 103°
2026-05-07 16:00 -33.89037 -68.86259 35474 ft 509 kts 93°
2026-05-07 16:00 -33.88070 -68.82078 35716 ft 530 kts 81°
2026-05-07 16:01 -33.86659 -68.77949 35869 ft 536 kts 77°
2026-05-07 16:01 -33.85102 -68.73864 36113 ft 537 kts 75°
2026-05-07 16:01 -33.83481 -68.69814 36317 ft 537 kts 74°
2026-05-07 16:01 -33.81840 -68.65768 36481 ft 538 kts 74°
2026-05-07 16:02 -33.80206 -68.61728 36640 ft 538 kts 74°
2026-05-07 16:02 -33.78583 -68.57681 36819 ft 537 kts 74°
2026-05-07 16:02 -33.76973 -68.53634 36996 ft 537 kts 74°
2026-05-07 16:02 -33.75372 -68.49592 37331 ft 532 kts 74°
2026-05-07 16:03 -33.73791 -68.45599 37737 ft 527 kts 73°
2026-05-07 16:03 -33.72222 -68.41626 37897 ft 527 kts 73°
2026-05-07 16:03 -33.70652 -68.37642 38005 ft 527 kts 73°
2026-05-07 16:03 -33.69081 -68.33659 38142 ft 528 kts 73°
2026-05-07 16:04 -33.67506 -68.29675 38293 ft 528 kts 73°
2026-05-07 16:04 -33.65929 -68.25694 38438 ft 528 kts 73°
2026-05-07 16:04 -33.64351 -68.21717 38575 ft 528 kts 73°
2026-05-07 16:04 -33.62792 -68.17795 38767 ft 527 kts 72°
2026-05-07 16:05 -33.61210 -68.13823 38877 ft 527 kts 72°
2026-05-07 16:05 -33.59629 -68.09856 38999 ft 527 kts 72°
2026-05-07 16:05 -33.58048 -68.05892 39038 ft 529 kts 72°
2026-05-07 16:06 -33.54871 -67.97942 39043 ft 527 kts 72°
2026-05-07 16:06 -33.51701 -67.90035 39043 ft 526 kts 72°
2026-05-07 16:07 -33.48532 -67.82139 39048 ft 526 kts 72°
2026-05-07 16:07 -33.45351 -67.74234 39053 ft 526 kts 72°
2026-05-07 16:08 -33.42165 -67.66334 39053 ft 526 kts 72°
2026-05-07 16:08 -33.38977 -67.58446 39053 ft 527 kts 72°
2026-05-07 16:09 -33.35773 -67.50536 39071 ft 530 kts 71°
2026-05-07 16:09 -33.32540 -67.42573 39057 ft 534 kts 71°
2026-05-07 16:10 -33.29286 -67.34581 39051 ft 535 kts 71°
2026-05-07 16:10 -33.26024 -67.26591 39037 ft 534 kts 71°
2026-05-07 16:11 -33.22766 -67.18615 39061 ft 535 kts 70°
2026-05-07 16:11 -33.19487 -67.10613 39045 ft 537 kts 70°
2026-05-07 16:12 -33.16198 -67.02610 39045 ft 537 kts 70°
2026-05-07 16:12 -33.12924 -66.94659 39037 ft 537 kts 70°
2026-05-07 16:13 -33.09626 -66.86667 39043 ft 537 kts 69°
2026-05-07 16:13 -33.06336 -66.78708 39034 ft 533 kts 69°
2026-05-07 16:14 -33.03053 -66.70792 39027 ft 533 kts 69°
2026-05-07 16:14 -32.99759 -66.62872 39023 ft 533 kts 69°
2026-05-07 16:15 -32.96463 -66.54964 39033 ft 533 kts 68°
2026-05-07 16:15 -32.93181 -66.47113 39012 ft 527 kts 68°
2026-05-07 16:16 -32.89915 -66.39310 39012 ft 527 kts 68°
2026-05-07 16:16 -32.86639 -66.31496 39013 ft 528 kts 68°
2026-05-07 16:17 -32.83356 -66.23686 39028 ft 528 kts 67°
2026-05-07 16:17 -32.80100 -66.15956 39000 ft 524 kts 67°
2026-05-07 16:18 -32.76834 -66.08228 39017 ft 523 kts 67°
2026-05-07 16:18 -32.73504 -66.00534 39007 ft 524 kts 66°
2026-05-07 16:19 -32.70136 -65.92856 39006 ft 524 kts 65°
2026-05-07 16:19 -32.66775 -65.85191 38998 ft 521 kts 65°
2026-05-07 16:20 -32.63437 -65.77574 39000 ft 520 kts 65°
2026-05-07 16:20 -32.60101 -65.69969 38997 ft 520 kts 65°
2026-05-07 16:21 -32.56758 -65.62362 39000 ft 520 kts 65°
2026-05-07 16:21 -32.53418 -65.54779 38997 ft 519 kts 64°
2026-05-07 16:22 -32.50098 -65.47262 38992 ft 518 kts 64°
2026-05-07 16:22 -32.46757 -65.39710 38986 ft 518 kts 64°
2026-05-07 16:23 -32.43399 -65.32134 38991 ft 520 kts 64°
2026-05-07 16:23 -32.40028 -65.24546 39014 ft 523 kts 62°
2026-05-07 16:24 -32.36622 -65.16894 39000 ft 528 kts 62°
2026-05-07 16:24 -32.33268 -65.09111 38985 ft 534 kts 64°
2026-05-07 16:25 -32.29936 -65.01227 38984 ft 539 kts 63°
2026-05-07 16:25 -32.26562 -64.93293 38959 ft 538 kts 63°
2026-05-07 16:26 -32.23185 -64.85411 38982 ft 537 kts 63°
2026-05-07 16:26 -32.19809 -64.77564 38966 ft 535 kts 63°
2026-05-07 16:27 -32.16434 -64.69740 38966 ft 534 kts 63°
2026-05-07 16:27 -32.13063 -64.61940 38951 ft 533 kts 63°
2026-05-07 16:28 -32.09688 -64.54144 38945 ft 534 kts 63°
2026-05-07 16:28 -32.06327 -64.46399 38931 ft 534 kts 63°
2026-05-07 16:29 -32.02942 -64.38613 38938 ft 534 kts 63°
2026-05-07 16:29 -31.99548 -64.30823 38920 ft 534 kts 62°
2026-05-07 16:30 -31.96143 -64.23025 38934 ft 535 kts 62°
2026-05-07 16:30 -31.92731 -64.15229 38936 ft 536 kts 62°
2026-05-07 16:31 -31.89313 -64.07436 38938 ft 536 kts 62°
2026-05-07 16:31 -31.85894 -63.99656 38937 ft 534 kts 61°
2026-05-07 16:32 -31.82511 -63.91974 38936 ft 532 kts 61°
2026-05-07 16:32 -31.79105 -63.84256 38936 ft 531 kts 61°
2026-05-07 16:33 -31.75680 -63.76569 38933 ft 531 kts 60°
2026-05-07 16:33 -31.72121 -63.68967 38929 ft 531 kts 58°
2026-05-07 16:34 -31.68535 -63.61396 38925 ft 530 kts 58°
2026-05-07 16:34 -31.64965 -63.53825 38925 ft 530 kts 59°
2026-05-07 16:35 -31.61402 -63.46250 38922 ft 530 kts 59°
2026-05-07 16:35 -31.57841 -63.38682 38918 ft 529 kts 58°
2026-05-07 16:36 -31.54304 -63.31183 38913 ft 528 kts 58°
2026-05-07 16:36 -31.50747 -63.23657 38893 ft 528 kts 58°
2026-05-07 16:37 -31.47180 -63.16127 38910 ft 529 kts 58°
2026-05-07 16:37 -31.43658 -63.08572 38900 ft 528 kts 58°
2026-05-07 16:38 -31.40241 -63.00973 38901 ft 526 kts 58°
2026-05-07 16:38 -31.37410 -62.94677 38895 ft 526 kts 58°
2026-05-07 16:39 -31.33984 -62.87116 38886 ft 526 kts 58°
2026-05-07 16:39 -31.30544 -62.79569 38880 ft 525 kts 57°
2026-05-07 16:40 -31.27100 -62.72037 38893 ft 525 kts 57°
2026-05-07 16:40 -31.23655 -62.64514 38868 ft 525 kts 57°
2026-05-07 16:41 -31.20202 -62.56997 38871 ft 525 kts 57°
2026-05-07 16:41 -31.16754 -62.49487 38857 ft 525 kts 56°
2026-05-07 16:42 -31.13304 -62.41988 38865 ft 523 kts 56°
2026-05-07 16:42 -31.09861 -62.34521 38865 ft 522 kts 56°
2026-05-07 16:43 -31.06435 -62.27112 38861 ft 522 kts 56°
2026-05-07 16:43 -31.02987 -62.19664 38849 ft 520 kts 54°
2026-05-07 16:44 -30.99556 -62.12257 38858 ft 518 kts 54°
2026-05-07 16:44 -30.96120 -62.04878 38857 ft 517 kts 54°
2026-05-07 16:45 -30.92680 -61.97510 38850 ft 517 kts 54°
2026-05-07 16:45 -30.89245 -61.90156 38826 ft 516 kts 53°
2026-05-07 16:46 -30.85823 -61.82837 38843 ft 513 kts 53°
2026-05-07 16:46 -30.82409 -61.75557 38843 ft 512 kts 53°
2026-05-07 16:47 -30.78992 -61.68285 38837 ft 512 kts 53°
2026-05-07 16:47 -30.75569 -61.61016 38837 ft 512 kts 53°
2026-05-07 16:48 -30.72163 -61.53793 38828 ft 512 kts 53°
2026-05-07 16:48 -30.68735 -61.46536 38829 ft 512 kts 52°
2026-05-07 16:49 -30.65269 -61.39300 38825 ft 512 kts 52°
2026-05-07 16:49 -30.61794 -61.32092 38793 ft 511 kts 51°
2026-05-07 16:50 -30.58336 -61.24918 38811 ft 508 kts 51°
2026-05-07 16:50 -30.54890 -61.17776 38806 ft 507 kts 51°
2026-05-07 16:51 -30.51443 -61.10645 38809 ft 507 kts 51°
2026-05-07 16:51 -30.47989 -61.03513 38781 ft 507 kts 51°
2026-05-07 16:52 -30.44535 -60.96392 38792 ft 507 kts 51°
2026-05-07 16:52 -30.41079 -60.89278 38793 ft 507 kts 51°
2026-05-07 16:53 -30.37640 -60.82212 38786 ft 507 kts 51°
2026-05-07 16:53 -30.34174 -60.75105 38769 ft 507 kts 51°
2026-05-07 16:54 -30.30708 -60.68008 38778 ft 506 kts 51°
2026-05-07 16:54 -30.27242 -60.60926 38778 ft 506 kts 51°
2026-05-07 16:55 -30.23771 -60.53846 38779 ft 506 kts 50°
2026-05-07 16:55 -30.20295 -60.46770 38769 ft 506 kts 50°
2026-05-07 16:56 -30.17054 -60.39512 38765 ft 515 kts 58°
2026-05-07 16:56 -30.13198 -60.27859 38757 ft 519 kts 60°
2026-05-07 16:57 -30.10743 -60.20075 38757 ft 519 kts 60°
2026-05-07 16:57 -30.08262 -60.12260 38742 ft 518 kts 60°
2026-05-07 16:58 -30.05769 -60.04472 38742 ft 516 kts 60°
2026-05-07 16:58 -30.03269 -59.96706 38740 ft 516 kts 60°
2026-05-07 16:59 -30.00760 -59.88935 38730 ft 516 kts 60°
2026-05-07 16:59 -29.98244 -59.81166 38716 ft 519 kts 60°
2026-05-07 17:00 -29.95701 -59.73335 38718 ft 524 kts 60°
2026-05-07 17:00 -29.93157 -59.65499 38704 ft 524 kts 60°
2026-05-07 17:01 -29.90608 -59.57651 38662 ft 516 kts 62°
2026-05-07 17:01 -29.88101 -59.49947 38689 ft 513 kts 62°
2026-05-07 17:02 -29.85584 -59.42265 38669 ft 512 kts 62°
2026-05-07 17:02 -29.83063 -59.34587 38677 ft 513 kts 62°
2026-05-07 17:03 -29.80565 -59.26963 38668 ft 501 kts 60°
2026-05-07 17:03 -29.78100 -59.19473 38660 ft 500 kts 60°
2026-05-07 17:04 -29.75631 -59.12005 38653 ft 498 kts 60°
2026-05-07 17:04 -29.73168 -59.04567 38653 ft 497 kts 60°
2026-05-07 17:05 -29.70715 -58.97166 38642 ft 494 kts 60°
2026-05-07 17:05 -29.68269 -58.89800 38645 ft 492 kts 60°
2026-05-07 17:06 -29.65857 -58.82426 38642 ft 493 kts 61°
2026-05-07 17:06 -29.63528 -58.75061 38642 ft 494 kts 61°
2026-05-07 17:07 -29.61183 -58.67648 38632 ft 493 kts 61°
2026-05-07 17:07 -29.58824 -58.60248 38635 ft 493 kts 61°
2026-05-07 17:08 -29.56452 -58.52848 38635 ft 493 kts 61°
2026-05-07 17:08 -29.54072 -58.45446 38614 ft 494 kts 61°
2026-05-07 17:09 -29.51675 -58.38017 38628 ft 499 kts 61°
2026-05-07 17:09 -29.49251 -58.30514 38624 ft 504 kts 62°
2026-05-07 17:10 -29.46811 -58.22963 38626 ft 503 kts 61°
2026-05-07 17:10 -29.44379 -58.15444 38628 ft 503 kts 62°
2026-05-07 17:11 -29.41949 -58.07967 38625 ft 504 kts 62°
2026-05-07 17:11 -29.39347 -58.00532 38621 ft 501 kts 59°
2026-05-07 17:12 -29.36567 -57.93229 38625 ft 500 kts 59°
2026-05-07 17:12 -29.33781 -57.85898 38625 ft 503 kts 60°
2026-05-07 17:13 -29.31001 -57.78486 38623 ft 507 kts 60°
2026-05-07 17:13 -29.28229 -57.71050 38626 ft 507 kts 60°
2026-05-07 17:14 -29.25457 -57.63621 38613 ft 507 kts 61°
2026-05-07 17:14 -29.22731 -57.56155 38626 ft 511 kts 62°
2026-05-07 17:15 -29.20134 -57.48561 38632 ft 513 kts 63°
2026-05-07 17:15 -29.17546 -57.40966 38630 ft 512 kts 63°
2026-05-07 17:16 -29.14944 -57.33428 38645 ft 513 kts 63°
2026-05-07 17:16 -29.12296 -57.25823 38648 ft 517 kts 63°
2026-05-07 17:17 -29.09628 -57.18179 38634 ft 517 kts 63°
2026-05-07 17:17 -29.06962 -57.10551 38629 ft 517 kts 63°
2026-05-07 17:18 -29.04279 -57.02896 38633 ft 521 kts 63°
2026-05-07 17:18 -29.01573 -56.95191 38648 ft 522 kts 63°
2026-05-07 17:19 -28.98868 -56.87498 38633 ft 522 kts 63°
2026-05-07 17:19 -28.96157 -56.79807 38648 ft 523 kts 63°
2026-05-07 17:20 -28.93421 -56.72066 38642 ft 527 kts 63°
2026-05-07 17:20 -28.90676 -56.64314 38643 ft 527 kts 63°
2026-05-07 17:21 -28.87945 -56.56615 38616 ft 527 kts 64°
2026-05-07 17:21 -28.85179 -56.48847 38633 ft 529 kts 64°
2026-05-07 17:22 -28.82404 -56.41053 38632 ft 531 kts 64°
2026-05-07 17:22 -28.79626 -56.33257 38633 ft 531 kts 64°
2026-05-07 17:23 -28.76841 -56.25468 38629 ft 530 kts 64°
2026-05-07 17:23 -28.74057 -56.17700 38632 ft 529 kts 64°
2026-05-07 17:24 -28.71281 -56.09922 38602 ft 530 kts 65°
2026-05-07 17:24 -28.68572 -56.02107 38629 ft 531 kts 66°
2026-05-07 17:25 -28.65889 -55.94333 38630 ft 531 kts 66°
2026-05-07 17:25 -28.63157 -55.86467 38630 ft 531 kts 65°
2026-05-07 17:26 -28.60448 -55.78710 38631 ft 531 kts 65°
2026-05-07 17:26 -28.57710 -55.70898 38634 ft 533 kts 65°
2026-05-07 17:27 -28.54957 -55.63056 38630 ft 534 kts 65°
2026-05-07 17:27 -28.52198 -55.55211 38636 ft 534 kts 65°
2026-05-07 17:28 -28.49435 -55.47374 38634 ft 536 kts 65°
2026-05-07 17:28 -28.46642 -55.39474 38634 ft 540 kts 65°
2026-05-07 17:29 -28.43836 -55.31548 38642 ft 540 kts 65°
2026-05-07 17:29 -28.41032 -55.23642 38639 ft 540 kts 64°
2026-05-07 17:30 -28.38221 -55.15739 38649 ft 545 kts 64°
2026-05-07 17:30 -28.35833 -55.09037 38651 ft 546 kts 64°
2026-05-07 17:31 -28.32997 -55.01090 38653 ft 546 kts 64°
2026-05-07 17:31 -28.30134 -54.93086 38658 ft 549 kts 64°
2026-05-07 17:32 -28.27245 -54.85032 38660 ft 552 kts 64°
2026-05-07 17:32 -28.24352 -54.76978 38661 ft 551 kts 64°
2026-05-07 17:33 -28.21450 -54.68912 38661 ft 553 kts 63°
2026-05-07 17:33 -28.18530 -54.60824 38669 ft 555 kts 63°
2026-05-07 17:34 -28.15603 -54.52735 38674 ft 555 kts 63°
2026-05-07 17:34 -28.12665 -54.44636 38688 ft 557 kts 63°
2026-05-07 17:35 -28.09709 -54.36505 38674 ft 559 kts 63°
2026-05-07 17:35 -28.06745 -54.28361 38692 ft 560 kts 63°
2026-05-07 17:36 -28.03772 -54.20212 38691 ft 560 kts 62°
2026-05-07 17:36 -28.00809 -54.12109 38696 ft 561 kts 62°
2026-05-07 17:37 -27.97823 -54.03961 38703 ft 560 kts 62°
2026-05-07 17:37 -27.94829 -53.95807 38695 ft 561 kts 62°
2026-05-07 17:38 -27.91822 -53.87641 38716 ft 562 kts 62°
2026-05-07 17:38 -27.88814 -53.79485 38722 ft 562 kts 62°
2026-05-07 17:39 -27.85796 -53.71322 38723 ft 563 kts 62°
2026-05-07 17:39 -27.82772 -53.63159 38725 ft 564 kts 62°
2026-05-07 17:40 -27.79739 -53.54991 38725 ft 564 kts 62°
2026-05-07 17:40 -27.76703 -53.46829 38730 ft 564 kts 62°
2026-05-07 17:41 -27.73663 -53.38674 38737 ft 563 kts 62°
2026-05-07 17:41 -27.70639 -53.30579 38742 ft 563 kts 62°
2026-05-07 17:42 -27.67587 -53.22434 38745 ft 564 kts 62°
2026-05-07 17:42 -27.64525 -53.14275 38751 ft 565 kts 62°
2026-05-07 17:43 -27.61459 -53.06119 38756 ft 566 kts 62°
2026-05-07 17:43 -27.58386 -52.97959 38756 ft 565 kts 62°
2026-05-07 17:44 -27.55311 -52.89804 38770 ft 566 kts 62°
2026-05-07 17:44 -27.52225 -52.81639 38780 ft 566 kts 62°
2026-05-07 17:45 -27.49134 -52.73491 38781 ft 566 kts 63°
2026-05-07 17:45 -27.46041 -52.65342 38786 ft 565 kts 62°
2026-05-07 17:46 -27.42940 -52.57212 38787 ft 565 kts 62°
2026-05-07 17:46 -27.39830 -52.49084 38789 ft 566 kts 63°
2026-05-07 17:47 -27.36720 -52.40946 38783 ft 565 kts 63°
2026-05-07 17:47 -27.33610 -52.32827 38788 ft 566 kts 63°
2026-05-07 17:48 -27.30486 -52.24693 38799 ft 567 kts 63°
2026-05-07 17:48 -27.27351 -52.16546 38804 ft 568 kts 63°
2026-05-07 17:49 -27.24210 -52.08396 38812 ft 567 kts 63°
2026-05-07 17:49 -27.21090 -52.00324 38804 ft 567 kts 63°
2026-05-07 17:50 -27.17943 -51.92215 38816 ft 566 kts 63°
2026-05-07 17:50 -27.14793 -51.84114 38825 ft 565 kts 63°
2026-05-07 17:51 -27.11643 -51.76022 38834 ft 566 kts 63°
2026-05-07 17:51 -27.08488 -51.67938 38841 ft 565 kts 63°
2026-05-07 17:52 -27.05331 -51.59866 38847 ft 565 kts 63°
2026-05-07 17:52 -27.02164 -51.51782 38853 ft 566 kts 63°
2026-05-07 17:53 -26.98983 -51.43691 38854 ft 567 kts 63°
2026-05-07 17:53 -26.95799 -51.35598 38860 ft 567 kts 63°
2026-05-07 17:54 -26.92614 -51.27518 38857 ft 566 kts 63°
2026-05-07 17:54 -26.89425 -51.19442 38861 ft 566 kts 63°
2026-05-07 17:55 -26.86257 -51.11440 38870 ft 565 kts 63°
2026-05-07 17:55 -26.83063 -51.03391 38878 ft 566 kts 63°
2026-05-07 17:56 -26.79866 -50.95345 38886 ft 565 kts 63°
2026-05-07 17:56 -26.76664 -50.87304 38878 ft 565 kts 63°
2026-05-07 17:57 -26.74001 -50.80625 38894 ft 565 kts 63°
2026-05-07 17:57 -26.70250 -50.71248 38899 ft 565 kts 63°
2026-05-07 17:58 -26.67055 -50.63292 38893 ft 564 kts 63°
2026-05-07 17:58 -26.63839 -50.55295 38898 ft 564 kts 63°
2026-05-07 17:59 -26.60643 -50.47301 38898 ft 563 kts 64°
2026-05-07 17:59 -26.57482 -50.39282 38893 ft 563 kts 64°
2026-05-07 18:00 -26.54305 -50.31286 38900 ft 562 kts 64°
2026-05-07 18:00 -26.51087 -50.23336 38895 ft 562 kts 63°
2026-05-07 18:01 -26.47852 -50.15391 38892 ft 561 kts 64°
2026-05-07 18:01 -26.44621 -50.07464 38892 ft 561 kts 63°
2026-05-07 18:02 -26.39773 -49.95571 38893 ft 561 kts 64°
2026-05-07 18:03 -26.36564 -49.87714 38912 ft 560 kts 64°
2026-05-07 18:03 -26.33328 -49.79805 38897 ft 560 kts 64°
2026-05-07 18:04 -26.30113 -49.71898 38893 ft 560 kts 64°
2026-05-07 18:04 -26.26905 -49.63998 38900 ft 559 kts 64°
2026-05-07 18:05 -26.23696 -49.56120 38905 ft 559 kts 64°
2026-05-07 18:05 -26.20468 -49.48251 38907 ft 558 kts 64°
2026-05-07 18:06 -26.17229 -49.40401 38911 ft 557 kts 64°
2026-05-07 18:06 -26.13991 -49.32576 38910 ft 557 kts 63°
2026-05-07 18:06 -26.12045 -49.28870 38912 ft 553 kts 50°
2026-05-07 18:07 -26.09519 -49.25682 38896 ft 545 kts 38°
2026-05-07 18:07 -26.03518 -49.20766 38916 ft 536 kts 26°
2026-05-07 18:08 -25.97097 -49.16571 38913 ft 535 kts 24°
2026-05-07 18:08 -25.90634 -49.12448 38917 ft 536 kts 25°
2026-05-07 18:09 -25.84211 -49.08240 38929 ft 536 kts 25°
2026-05-07 18:09 -25.77801 -49.03978 38944 ft 536 kts 26°
2026-05-07 18:10 -25.71404 -48.99716 38960 ft 537 kts 26°
2026-05-07 18:10 -25.64993 -48.95456 38965 ft 537 kts 26°
2026-05-07 18:11 -25.58595 -48.91213 38958 ft 536 kts 26°
2026-05-07 18:11 -25.52241 -48.87000 38941 ft 536 kts 25°
2026-05-07 18:12 -25.45825 -48.82772 38922 ft 537 kts 25°
2026-05-07 18:12 -25.39298 -48.78758 38906 ft 536 kts 23°
2026-05-07 18:13 -25.32735 -48.74836 38905 ft 536 kts 23°
2026-05-07 18:13 -25.26181 -48.70893 38904 ft 536 kts 23°
2026-05-07 18:14 -25.19634 -48.66945 38898 ft 536 kts 24°
2026-05-07 18:14 -25.13079 -48.62992 38905 ft 537 kts 24°
2026-05-07 18:15 -25.06516 -48.59040 38904 ft 537 kts 23°
2026-05-07 18:15 -24.99948 -48.55103 38909 ft 537 kts 23°
2026-05-07 18:16 -24.93387 -48.51163 38904 ft 537 kts 24°
2026-05-07 18:16 -24.86837 -48.47197 38907 ft 537 kts 24°
2026-05-07 18:17 -24.80327 -48.43255 38896 ft 538 kts 24°
2026-05-07 18:17 -24.73756 -48.39291 38902 ft 538 kts 24°
2026-05-07 18:18 -24.68297 -48.36001 38906 ft 538 kts 24°
2026-05-07 18:18 -24.61732 -48.32051 38901 ft 538 kts 24°
2026-05-07 18:19 -24.55158 -48.28103 38899 ft 538 kts 24°
2026-05-07 18:19 -24.48583 -48.24163 38908 ft 538 kts 24°
2026-05-07 18:20 -24.47472 -48.23498 38905 ft 538 kts 24°
2026-05-07 18:20 -24.35435 -48.16293 38912 ft 539 kts 24°
2026-05-07 18:21 -24.28861 -48.12393 38537 ft 533 kts 24°
2026-05-07 18:21 -24.25598 -48.10473 37930 ft 533 kts 24°
2026-05-07 18:21 -24.22343 -48.08556 37237 ft 527 kts 24°
2026-05-07 18:21 -24.19140 -48.06669 36110 ft 519 kts 24°
2026-05-07 18:22 -24.15974 -48.04803 34811 ft 515 kts 24°
2026-05-07 18:22 -24.13883 -48.03573 33943 ft 513 kts 25°
2026-05-07 18:22 -24.09696 -48.01112 31972 ft 508 kts 25°
2026-05-07 18:22 -24.06597 -47.99289 30434 ft 503 kts 25°
2026-05-07 18:23 -24.03531 -47.97489 28678 ft 498 kts 25°
2026-05-07 18:23 -24.00494 -47.95707 26912 ft 493 kts 25°
2026-05-07 18:23 -23.97488 -47.93943 25291 ft 486 kts 25°
2026-05-07 18:23 -23.94538 -47.92212 23788 ft 477 kts 25°
2026-05-07 18:24 -23.91650 -47.90518 22329 ft 464 kts 26°
2026-05-07 18:24 -23.88887 -47.88897 21750 ft 438 kts 26°
2026-05-07 18:24 -23.86220 -47.87335 21505 ft 430 kts 25°
2026-05-07 18:24 -23.83623 -47.85815 21145 ft 416 kts 26°
2026-05-07 18:25 -23.81129 -47.84356 20699 ft 409 kts 25°
2026-05-07 18:25 -23.78713 -47.82739 20230 ft 409 kts 36°
2026-05-07 18:25 -23.76729 -47.80509 19770 ft 412 kts 52°
2026-05-07 18:25 -23.75454 -47.77711 19300 ft 415 kts 68°
2026-05-07 18:26 -23.74656 -47.74691 18846 ft 413 kts 73°
2026-05-07 18:26 -23.73949 -47.71671 18384 ft 410 kts 73°
2026-05-07 18:26 -23.73247 -47.68665 17891 ft 406 kts 72°
2026-05-07 18:26 -23.72546 -47.65700 17423 ft 401 kts 73°
2026-05-07 18:27 -23.71848 -47.62771 16971 ft 397 kts 72°
2026-05-07 18:27 -23.71152 -47.59876 16533 ft 392 kts 73°
2026-05-07 18:27 -23.70463 -47.57018 16083 ft 388 kts 72°
2026-05-07 18:27 -23.69779 -47.54191 15642 ft 383 kts 73°
2026-05-07 18:28 -23.69101 -47.51393 15212 ft 379 kts 73°
2026-05-07 18:28 -23.68431 -47.48624 14788 ft 376 kts 72°
2026-05-07 18:28 -23.67764 -47.45880 14343 ft 373 kts 73°
2026-05-07 18:28 -23.67101 -47.43157 13919 ft 369 kts 73°
2026-05-07 18:29 -23.66444 -47.40462 13455 ft 366 kts 73°
2026-05-07 18:29 -23.65794 -47.37786 13012 ft 363 kts 73°
2026-05-07 18:29 -23.65151 -47.35142 12577 ft 359 kts 72°
2026-05-07 18:29 -23.64512 -47.32522 12153 ft 355 kts 72°
2026-05-07 18:30 -23.63880 -47.29929 11730 ft 352 kts 72°
2026-05-07 18:30 -23.63260 -47.27390 11294 ft 350 kts 71°
2026-05-07 18:30 -23.62636 -47.24837 10919 ft 346 kts 72°
2026-05-07 18:30 -23.62029 -47.22347 10800 ft 334 kts 72°
2026-05-07 18:31 -23.61450 -47.19971 10679 ft 313 kts 71°
2026-05-07 18:31 -23.60915 -47.17772 10555 ft 287 kts 72°
2026-05-07 18:31 -23.60416 -47.15733 10428 ft 273 kts 71°
2026-05-07 18:31 -23.59923 -47.13735 10300 ft 273 kts 71°
2026-05-07 18:32 -23.59432 -47.11745 10172 ft 270 kts 71°
2026-05-07 18:32 -23.58943 -47.09761 10048 ft 272 kts 71°
2026-05-07 18:32 -23.58451 -47.07765 9818 ft 274 kts 71°
2026-05-07 18:32 -23.57955 -47.05748 9482 ft 276 kts 71°
2026-05-07 18:33 -23.57457 -47.03722 9173 ft 277 kts 71°
2026-05-07 18:33 -23.56959 -47.01695 8867 ft 276 kts 70°
2026-05-07 18:33 -23.56464 -46.99684 8588 ft 273 kts 70°
2026-05-07 18:33 -23.55972 -46.97692 8290 ft 271 kts 70°
2026-05-07 18:34 -23.55482 -46.95709 8017 ft 270 kts 71°
2026-05-07 18:34 -23.54995 -46.93736 7715 ft 270 kts 71°
2026-05-07 18:34 -23.54509 -46.91767 7486 ft 268 kts 71°
2026-05-07 18:34 -23.54028 -46.89814 7228 ft 267 kts 71°
2026-05-07 18:35 -23.53546 -46.87863 6959 ft 266 kts 71°
2026-05-07 18:35 -23.53066 -46.85921 6749 ft 265 kts 71°
2026-05-07 18:35 -23.52586 -46.83981 6461 ft 265 kts 71°
2026-05-07 18:35 -23.52115 -46.82074 6197 ft 264 kts 71°
2026-05-07 18:36 -23.51633 -46.80131 6060 ft 270 kts 71°
2026-05-07 18:36 -23.51132 -46.78122 6054 ft 277 kts 71°
2026-05-07 18:36 -23.50629 -46.76096 6056 ft 277 kts 71°
2026-05-07 18:36 -23.50127 -46.74067 6068 ft 278 kts 71°
2026-05-07 18:37 -23.49625 -46.72041 6064 ft 277 kts 71°
2026-05-07 18:37 -23.49120 -46.70012 6068 ft 278 kts 71°
2026-05-07 18:37 -23.48670 -46.67963 6015 ft 279 kts 74°
2026-05-07 18:37 -23.48198 -46.65931 5749 ft 276 kts 70°
2026-05-07 18:38 -23.47641 -46.63935 5357 ft 274 kts 70°
2026-05-07 18:38 -23.47112 -46.61989 4965 ft 258 kts 70°
2026-05-07 18:38 -23.46638 -46.60194 4650 ft 235 kts 70°
2026-05-07 18:38 -23.46195 -46.58557 4395 ft 215 kts 69°
2026-05-07 18:39 -23.45787 -46.57047 4128 ft 202 kts 68°
2026-05-07 18:39 -23.45403 -46.55631 3862 ft 187 kts 69°
2026-05-07 18:39 -23.45056 -46.54340 3643 ft 169 kts 70°
2026-05-07 18:39 -23.44739 -46.53170 3438 ft 158 kts 69°
2026-05-07 18:40 -23.44432 -46.52040 3230 ft 150 kts 69°
2026-05-07 18:40 -23.44152 -46.51003 3060 ft 142 kts 68°
2026-05-07 18:40 -23.43876 -46.49986 2862 ft 141 kts 68°
2026-05-07 18:40 -23.43586 -46.48944 2606 ft 142 kts 71°
2026-05-07 18:41 -23.43324 -46.47947 2472 ft 133 kts 70°
2026-05-07 18:41 -23.43125 -46.47211 2471 ft 60 kts 73°
2026-05-07 18:41 -23.43033 -46.46871 2471 ft 30 kts 73°
2026-05-07 18:41 -23.42964 -46.46771 2472 ft 16 kts 20°
2026-05-07 18:42 -23.42860 -46.46791 2469 ft 15 kts 340°
2026-05-07 18:42 -23.42782 -46.46856 2472 ft 14 kts 283°
2026-05-07 18:42 -23.42799 -46.46959 2470 ft 14 kts 254°
2026-05-07 18:42 -23.42830 -46.47074 2469 ft 22 kts 253°
2026-05-07 18:43 -23.42882 -46.47266 2471 ft 27 kts 253°
2026-05-07 18:43 -23.42924 -46.47446 2471 ft 8 kts 274°
2026-05-07 18:43 -23.42915 -46.47465 2468 ft 9 kts 303°
2026-05-07 18:43 -23.42862 -46.47490 2470 ft 4 kts
2026-05-07 18:44 -23.42846 -46.47469 2468 ft 6 kts 59°
2026-05-07 18:44 -23.42833 -46.47424 2468 ft 7 kts 76°
2026-05-07 18:44 -23.42827 -46.47399 2466 ft 0 kts 75°